Time,TemperatureF,DewpointF,PressureIn,WindDirection,WindDirectionDegrees,WindSpeedMPH,WindSpeedGustMPH,Humidity,HourlyPrecipIn,Conditions,Clouds,dailyrainin,SoftwareType,DateUTC
2013-06-10 00:09:00,59.0,53.5,29.97,South,180,1.6,-999.0,82,-99.99,,,0.00,Acu-Link.com,2013-06-10 04:09:00,
2013-06-10 00:24:00,59.5,53.7,29.96,South,180,0.0,-999.0,81,-99.99,,,0.00,Acu-Link.com,2013-06-10 04:24:00,
2013-06-10 00:40:00,59.0,53.5,29.96,South,180,0.0,-999.0,82,-99.99,,,0.00,Acu-Link.com,2013-06-10 04:40:00,
2013-06-10 00:55:00,58.8,53.3,29.96,SE,135,0.0,-999.0,82,-99.99,,,0.00,Acu-Link.com,2013-06-10 04:55:00,
2013-06-10 01:10:00,59.2,53.7,29.96,NE,45,0.0,-999.0,82,-99.99,,,0.00,Acu-Link.com,2013-06-10 05:10:00,
2013-06-10 01:26:00,60.3,53.7,29.96,SSE,157,1.1,-999.0,79,-99.99,,,0.00,Acu-Link.com,2013-06-10 05:26:00,
2013-06-10 01:42:00,59.9,54.1,29.95,ESE,112,0.0,-999.0,81,-99.99,,,0.00,Acu-Link.com,2013-06-10 05:42:00,
2013-06-10 01:57:00,60.8,53.9,29.95,SE,135,2.7,-999.0,78,-99.99,,,0.00,Acu-Link.com,2013-06-10 05:57:00,
2013-06-10 02:12:00,62.1,54.0,29.94,SSW,202,2.7,-999.0,75,-99.99,,,0.00,Acu-Link.com,2013-06-10 06:12:00,
2013-06-10 02:28:00,61.9,54.2,29.93,SSW,202,3.1,-999.0,76,-99.99,,,0.00,Acu-Link.com,2013-06-10 06:28:00,
2013-06-10 02:44:00,61.7,54.1,29.93,SSE,157,1.1,-999.0,76,-99.99,,,0.00,Acu-Link.com,2013-06-10 06:44:00,
2013-06-10 02:59:00,61.9,54.2,29.93,SSE,157,2.7,-999.0,76,-99.99,,,0.00,Acu-Link.com,2013-06-10 06:59:00,
2013-06-10 03:15:00,61.7,54.1,29.93,SSE,157,2.2,-999.0,76,-99.99,,,0.00,Acu-Link.com,2013-06-10 07:15:00,
2013-06-10 03:32:00,62.4,54.0,29.92,SSE,157,2.2,-999.0,74,-99.99,,,0.00,Acu-Link.com,2013-06-10 07:32:00,
2013-06-10 03:47:00,63.3,53.4,29.91,South,180,2.7,-999.0,70,-99.99,,,0.00,Acu-Link.com,2013-06-10 07:47:00,
2013-06-10 04:02:00,64.0,53.7,29.91,SE,135,3.8,-999.0,69,-99.99,,,0.00,Acu-Link.com,2013-06-10 08:02:00,
2013-06-10 04:18:00,64.2,53.4,29.91,SE,135,5.1,-999.0,68,-99.99,,,0.00,Acu-Link.com,2013-06-10 08:18:00,
2013-06-10 04:33:00,64.2,53.4,29.90,South,180,7.4,-999.0,68,-99.99,,,0.00,Acu-Link.com,2013-06-10 08:33:00,
2013-06-10 04:48:00,64.4,53.6,29.90,SSE,157,2.7,-999.0,68,-99.99,,,0.00,Acu-Link.com,2013-06-10 08:48:00,
2013-06-10 05:03:00,64.2,53.4,29.90,SSW,202,5.8,-999.0,68,-99.99,,,0.00,Acu-Link.com,2013-06-10 09:03:00,
2013-06-10 05:19:00,64.0,53.7,29.89,SSE,157,2.2,-999.0,69,-99.99,,,0.00,Acu-Link.com,2013-06-10 09:19:00,
2013-06-10 05:35:00,63.9,53.5,29.89,South,180,2.2,-999.0,69,-99.99,,,0.00,Acu-Link.com,2013-06-10 09:35:00,
2013-06-10 06:06:00,64.2,53.8,29.88,South,180,4.3,-999.0,69,-99.99,,,0.00,Acu-Link.com,2013-06-10 10:06:00,
2013-06-10 06:21:00,64.6,54.2,29.88,SSE,157,4.3,-999.0,69,-99.99,,,0.00,Acu-Link.com,2013-06-10 10:21:00,
2013-06-10 06:37:00,64.8,53.9,29.88,ESE,112,3.8,-999.0,68,-99.99,,,0.00,Acu-Link.com,2013-06-10 10:37:00,
2013-06-10 06:52:00,65.1,54.3,29.87,SSW,202,5.1,-999.0,68,-99.99,,,0.00,Acu-Link.com,2013-06-10 10:52:00,
2013-06-10 07:08:00,65.1,54.3,29.87,SE,135,4.7,-999.0,68,-99.99,,,0.00,Acu-Link.com,2013-06-10 11:08:00,
2013-06-10 07:23:00,65.5,54.6,29.86,South,180,4.3,-999.0,68,-99.99,,,0.00,Acu-Link.com,2013-06-10 11:23:00,
2013-06-10 07:40:00,65.7,55.2,29.86,South,180,6.7,-999.0,69,-99.99,,,0.00,Acu-Link.com,2013-06-10 11:40:00,
2013-06-10 07:56:00,66.2,55.7,29.85,SSW,202,4.7,-999.0,69,-99.99,,,0.00,Acu-Link.com,2013-06-10 11:56:00,
2013-06-10 08:11:00,67.1,55.8,29.85,SSW,202,5.8,-999.0,67,-99.99,,,0.00,Acu-Link.com,2013-06-10 12:11:00,
2013-06-10 08:26:00,66.9,56.0,29.84,South,180,5.1,-999.0,68,-99.99,,,0.00,Acu-Link.com,2013-06-10 12:26:00,
2013-06-10 08:42:00,66.4,56.3,29.84,SE,135,6.7,-999.0,70,-99.99,,,0.00,Acu-Link.com,2013-06-10 12:42:00,
2013-06-10 08:57:00,67.1,56.2,29.84,ESE,112,4.7,-999.0,68,-99.99,,,0.00,Acu-Link.com,2013-06-10 12:57:00,
2013-06-10 09:12:00,68.0,56.6,29.84,SSE,157,6.7,-999.0,67,-99.99,,,0.00,Acu-Link.com,2013-06-10 13:12:00,
2013-06-10 09:27:00,68.5,56.7,29.83,SE,135,6.7,-999.0,66,-99.99,,,0.00,Acu-Link.com,2013-06-10 13:27:00,
2013-06-10 09:43:00,68.4,57.0,29.83,South,180,6.3,-999.0,67,-99.99,,,0.00,Acu-Link.com,2013-06-10 13:43:00,
2013-06-10 09:58:00,67.5,57.7,29.83,SSW,202,6.7,-999.0,71,-99.99,,,0.00,Acu-Link.com,2013-06-10 13:58:00,
2013-06-10 10:13:00,67.1,58.5,29.83,ESE,112,6.3,-999.0,74,-99.99,,,0.00,Acu-Link.com,2013-06-10 14:13:00,
2013-06-10 10:28:00,67.1,58.9,29.82,SE,135,6.7,-999.0,75,-99.99,,,0.00,Acu-Link.com,2013-06-10 14:28:00,
2013-06-10 10:43:00,67.3,59.4,29.82,ESE,112,4.7,-999.0,76,-99.99,,,0.00,Acu-Link.com,2013-06-10 14:43:00,
2013-06-10 10:58:00,67.3,59.4,29.81,SSE,157,7.4,-999.0,76,-99.99,,,0.00,Acu-Link.com,2013-06-10 14:58:00,
2013-06-10 11:14:00,68.0,59.8,29.81,SE,135,4.7,-999.0,75,-99.99,,,0.00,Acu-Link.com,2013-06-10 15:14:00,
2013-06-10 11:29:00,68.9,59.9,29.81,South,180,6.3,-999.0,73,-99.99,,,0.00,Acu-Link.com,2013-06-10 15:29:00,
2013-06-10 11:44:00,69.8,60.4,29.81,ESE,112,7.8,-999.0,72,-99.99,,,0.00,Acu-Link.com,2013-06-10 15:44:00,
2013-06-10 11:59:00,70.9,61.0,29.81,South,180,8.3,-999.0,71,-99.99,,,0.00,Acu-Link.com,2013-06-10 15:59:00,
2013-06-10 12:14:00,70.9,61.0,29.80,SE,135,9.8,-999.0,71,-99.99,,,0.00,Acu-Link.com,2013-06-10 16:14:00,
2013-06-10 12:30:00,71.6,62.1,29.80,ESE,112,5.8,-999.0,72,-99.99,,,0.00,Acu-Link.com,2013-06-10 16:30:00,
2013-06-10 12:45:00,70.7,61.6,29.80,SSE,157,6.7,-999.0,73,-99.99,,,0.00,Acu-Link.com,2013-06-10 16:45:00,
2013-06-10 13:00:00,70.9,62.2,29.79,SSE,157,4.3,-999.0,74,-99.99,,,0.00,Acu-Link.com,2013-06-10 17:00:00,
2013-06-10 13:15:00,69.8,61.9,29.78,ESE,112,6.3,-999.0,76,-99.99,,,0.00,Acu-Link.com,2013-06-10 17:15:00,
2013-06-10 13:31:00,69.4,61.9,29.79,South,180,7.8,-999.0,77,-99.99,,,0.00,Acu-Link.com,2013-06-10 17:31:00,
2013-06-10 13:46:00,68.7,62.3,29.78,ENE,67,2.2,-999.0,80,-99.99,,,0.00,Acu-Link.com,2013-06-10 17:46:00,
2013-06-10 14:01:00,68.0,61.9,29.77,South,180,3.1,-999.0,81,-99.99,,,0.00,Acu-Link.com,2013-06-10 18:01:00,
2013-06-10 14:16:00,68.2,62.1,29.76,SW,225,4.3,-999.0,81,-99.99,,,0.00,Acu-Link.com,2013-06-10 18:16:00,
2013-06-10 14:31:00,68.4,62.6,29.76,East,90,2.2,-999.0,82,-99.99,,,0.00,Acu-Link.com,2013-06-10 18:31:00,
2013-06-10 14:47:00,67.3,63.3,29.75,SW,225,6.3,-999.0,87,-99.99,,,0.00,Acu-Link.com,2013-06-10 18:47:00,
2013-06-10 15:02:00,66.9,63.2,29.75,ESE,112,4.7,-999.0,88,-99.99,,,0.01,Acu-Link.com,2013-06-10 19:02:00,
2013-06-10 15:17:00,66.6,63.2,29.74,South,180,4.3,-999.0,89,-99.99,,,0.02,Acu-Link.com,2013-06-10 19:17:00,
2013-06-10 15:32:00,66.6,63.5,29.73,SSE,157,2.2,-999.0,90,-99.99,,,0.02,Acu-Link.com,2013-06-10 19:32:00,
2013-06-10 15:47:00,66.4,63.4,29.73,ESE,112,0.0,-999.0,90,-99.99,,,0.02,Acu-Link.com,2013-06-10 19:47:00,
2013-06-10 16:03:00,65.8,63.1,29.72,South,180,4.3,-999.0,91,-99.99,,,0.02,Acu-Link.com,2013-06-10 20:03:00,
2013-06-10 16:18:00,65.8,63.1,29.71,East,90,3.1,-999.0,91,-99.99,,,0.04,Acu-Link.com,2013-06-10 20:18:00,
2013-06-10 16:33:00,65.5,62.8,29.70,SSE,157,3.8,-999.0,91,-99.99,,,0.05,Acu-Link.com,2013-06-10 20:33:00,
2013-06-10 16:48:00,65.5,63.1,29.70,NW,315,2.7,-999.0,92,-99.99,,,0.06,Acu-Link.com,2013-06-10 20:48:00,
2013-06-10 17:04:00,64.9,62.9,29.69,North,0,2.7,-999.0,93,-99.99,,,0.08,Acu-Link.com,2013-06-10 21:04:00,
2013-06-10 17:19:00,64.9,62.9,29.68,NNE,22,5.8,-999.0,93,-99.99,,,0.12,Acu-Link.com,2013-06-10 21:19:00,
2013-06-10 17:34:00,64.8,62.7,29.68,SSE,157,3.8,-999.0,93,-99.99,,,0.12,Acu-Link.com,2013-06-10 21:34:00,
2013-06-10 17:49:00,64.8,62.7,29.67,West,270,2.7,-999.0,93,-99.99,,,0.12,Acu-Link.com,2013-06-10 21:49:00,
2013-06-10 18:04:00,64.8,62.7,29.66,South,180,4.3,-999.0,93,-99.99,,,0.12,Acu-Link.com,2013-06-10 22:04:00,
2013-06-10 18:20:00,64.8,62.7,29.66,SSE,157,6.3,-999.0,93,-99.99,,,0.12,Acu-Link.com,2013-06-10 22:20:00,
2013-06-10 18:35:00,64.6,62.5,29.65,South,180,2.7,-999.0,93,-99.99,,,0.12,Acu-Link.com,2013-06-10 22:35:00,
2013-06-10 18:50:00,64.6,62.5,29.64,South,180,6.3,-999.0,93,-99.99,,,0.12,Acu-Link.com,2013-06-10 22:50:00,
2013-06-10 19:05:00,64.4,62.3,29.63,SSW,202,3.8,-999.0,93,-99.99,,,0.12,Acu-Link.com,2013-06-10 23:05:00,
2013-06-10 19:20:00,64.4,62.3,29.63,SSE,157,2.2,-999.0,93,-99.99,,,0.13,Acu-Link.com,2013-06-10 23:20:00,
2013-06-10 19:36:00,64.4,62.3,29.62,SSW,202,7.4,-999.0,93,-99.99,,,0.13,Acu-Link.com,2013-06-10 23:36:00,
2013-06-10 20:21:00,64.6,62.5,29.61,SSE,157,2.7,-999.0,93,-99.99,,,0.13,Acu-Link.com,2013-06-11 00:21:00,
2013-06-10 20:37:00,64.6,62.5,29.60,South,180,2.2,-999.0,93,-99.99,,,0.13,Acu-Link.com,2013-06-11 00:37:00,
2013-06-10 20:52:00,64.6,62.8,29.60,South,180,3.1,-999.0,94,-99.99,,,0.13,Acu-Link.com,2013-06-11 00:52:00,
2013-06-10 21:07:00,64.6,62.8,29.59,SSE,157,5.1,-999.0,94,-99.99,,,0.13,Acu-Link.com,2013-06-11 01:07:00,
2013-06-10 21:22:00,64.8,63.0,29.59,South,180,2.2,-999.0,94,-99.99,,,0.13,Acu-Link.com,2013-06-11 01:22:00,
2013-06-10 21:37:00,64.8,63.0,29.59,South,180,6.3,-999.0,94,-99.99,,,0.13,Acu-Link.com,2013-06-11 01:37:00,
2013-06-10 21:53:00,64.8,63.0,29.58,SE,135,2.7,-999.0,94,-99.99,,,0.13,Acu-Link.com,2013-06-11 01:53:00,
2013-06-10 22:08:00,64.9,63.2,29.57,South,180,3.1,-999.0,94,-99.99,,,0.13,Acu-Link.com,2013-06-11 02:08:00,
2013-06-10 22:23:00,64.9,63.2,29.58,South,180,5.1,-999.0,94,-99.99,,,0.13,Acu-Link.com,2013-06-11 02:23:00,
2013-06-10 22:38:00,64.9,63.2,29.57,SE,135,8.9,-999.0,94,-99.99,,,0.13,Acu-Link.com,2013-06-11 02:38:00,
2013-06-10 22:53:00,64.9,63.2,29.57,NE,45,3.1,-999.0,94,-99.99,,,0.13,Acu-Link.com,2013-06-11 02:53:00,
2013-06-10 23:09:00,64.9,63.2,29.57,SSE,157,4.7,-999.0,94,-99.99,,,0.13,Acu-Link.com,2013-06-11 03:09:00,
2013-06-10 23:24:00,64.9,63.2,29.56,South,180,5.1,-999.0,94,-99.99,,,0.13,Acu-Link.com,2013-06-11 03:24:00,
2013-06-10 23:39:00,64.9,63.2,29.55,SE,135,3.8,-999.0,94,-99.99,,,0.13,Acu-Link.com,2013-06-11 03:39:00,
2013-06-10 23:54:00,64.9,63.2,29.55,SSE,157,4.3,-999.0,94,-99.99,,,0.13,Acu-Link.com,2013-06-11 03:54:00,